Luxor, Egypt

10:48 AM EET on August 20, 2017 (GMT +0200)
Luxor

Weather History for HELX - September, 2012

Change the Weather History Date:

Tuesday, September 18, 2012

  Actual Average Record
Temperature  
Mean Temperature 88 °F -  
Max Temperature 106 °F 94 °F 109 °F (2003)
Min Temperature 69 °F 68 °F 69 °F (1997)
Cooling Degree Days 22    
Growing Degree Days 38 (Base 50)    
Moisture  
Dew Point 50 °F    
Average Humidity 27    
Maximum Humidity 78    
Minimum Humidity 11    
Precipitation  
Precipitation 0.00 in 0.00 in - ()
Sea Level Pressure  
Sea Level Pressure 29.76 in    
Wind  
Wind Speed 2 mph ()    
Max Wind Speed 5 mph    
Max Gust Speed -    
Visibility 6.0 miles    
Events      
Averages and records for this station are not official NWS values.
T = Trace of Precipitation, MM = Missing Value Source: Averaged Metar Reports

Daily Weather History Graph

Daily Weather History Graph

Search for Another Location

Airport or City:

Trip Planner

Search our weather history database for the weather conditions in past years. The results will help you decide how hot, cold, wet, or windy it might be!

Date:

Astronomy

Sep. 18, 2012 Rise Set
Actual Time 5:36 AM EET 5:49 PM EET
Civil Twilight 5:13 AM EET 6:12 PM EET
Nautical Twilight 4:46 AM EET 6:39 PM EET
Astronomical Twilight 4:19 AM EET 7:06 PM EET
Moon 7:50 AM EET (9/18) 7:22 PM EET (9/18)
Length of Visible Light 12h 59m
Length of Day
12h 13m
Waxing Crescent, 7% of the Moon is Illuminated
Sep 18
Waxing Crescent
Sep 22
First Quarter
Sep 30
Full
Oct 8
Last Quarter
Oct 15
New

Hourly Weather History & Observations

Time (EET) Temp. Heat Index Dew Point Humidity Pressure Visibility Wind Dir Wind Speed Gust Speed Precip Events Conditions
12:00 AM 80.6 °F - 44.6 °F 28% 29.80 in - SSE 3.5 mph - N/A   Clear
1:00 AM 80.6 °F - 46.4 °F 30% 29.77 in - SSE 2.3 mph - N/A   Clear
2:00 AM 80 °F - 44 °F 18% 29.76 in 6 mi Calm Calm - -  
2:00 AM 78.8 °F - 44.6 °F 30% 29.77 in - Calm Calm - N/A   Clear
3:00 AM 75.2 °F - 42.8 °F 31% 29.77 in - SSE 2.3 mph - N/A   Clear
4:00 AM 71.6 °F - 44.6 °F 38% 29.77 in - Calm Calm - N/A   Clear
5:00 AM 71.6 °F - 64.4 °F 78% 29.77 in - NNE 1.2 mph - N/A   Clear
6:00 AM 75.2 °F - 46.4 °F 36% 29.80 in - Calm Calm - N/A   Clear
7:00 AM 75.2 °F - 41.0 °F 29% 29.80 in - Calm Calm - N/A   Clear
8:00 AM 80 °F - 47 °F 22% 29.83 in 6 mi Calm Calm - -  
8:00 AM 78.8 °F - 48.2 °F 34% 29.83 in - Calm Calm - N/A   Clear
9:00 AM 86.0 °F 84.2 °F 53.6 °F 33% 29.83 in - NNE 2.3 mph - N/A   Clear
10:00 AM 93.2 °F 90.8 °F 53.6 °F 26% 29.80 in - Calm Calm - N/A   Clear
11:00 AM 96.8 °F 95.1 °F 55.4 °F 25% 29.80 in - WNW 4.6 mph - N/A   Clear
12:00 PM 98.6 °F 99.4 °F 60.8 °F 29% 29.77 in - West 4.6 mph - N/A   Clear
1:00 PM 102.2 °F 100.9 °F 55.4 °F 21% 29.77 in - WNW 2.3 mph - N/A   Clear
2:00 PM 105 °F - 53 °F 11% 29.72 in 6 mi WSW 4.6 mph - -  
2:00 PM 105.8 °F 104.3 °F 53.6 °F 18% 29.74 in - WSW 4.6 mph - N/A   Clear
4:00 PM 104.0 °F - 51.8 °F 17% 29.71 in - Calm Calm - N/A   Clear
5:00 PM 102.2 °F - 51.8 °F 18% 29.71 in - North 2.3 mph - N/A   Clear
6:00 PM 98.6 °F 96.4 °F 53.6 °F 22% 29.71 in - Calm Calm - N/A   Clear
7:00 PM 89.6 °F 88.9 °F 59.0 °F 36% 29.71 in - West 4.6 mph - N/A   Clear
8:00 PM 90 °F - 53 °F 19% 29.73 in 6 mi South 2.3 mph - -  
8:00 PM 89.6 °F 87.3 °F 53.6 °F 29% 29.74 in - South 2.3 mph - N/A   Clear
9:00 PM 89.6 °F - 46.4 °F 22% 29.74 in - SSE 4.6 mph - N/A   Clear
10:00 PM 87.8 °F - 42.8 °F 21% 29.74 in - Calm Calm - N/A   Clear
11:00 PM 87.8 °F - 42.8 °F 21% 29.74 in - SSE 3.5 mph - N/A   Clear